Appleton, MN

12:30 AM CDT on May 23, 2018 (GMT -0500)
Appleton Municipal

Weather History for KAQP - April, 2014

Change the Weather History Date:

Tuesday, April 1, 2014

  Actual Average Record
Temperature  
Mean Temperature 22 °F -  
Max Temperature 28 °F 44 °F 77 °F (2015)
Min Temperature 17 °F 25 °F 15 °F (2013)
Degree Days  
Heating Degree Days 42    
Moisture  
Dew Point 16 °F    
Average Humidity 77    
Maximum Humidity 93    
Minimum Humidity 68    
Precipitation  
Precipitation 0.00 in - - ()
Sea Level Pressure  
Sea Level Pressure 29.98 in    
Wind  
Wind Speed 25 mph (NW)    
Max Wind Speed 36 mph    
Max Gust Speed 48 mph    
Visibility 8 miles    
Events Snow    
Averages and records for this station are not official NWS values.
T = Trace of Precipitation, MM = Missing Value Source: NWS Daily Summary

Daily Weather History Graph

Daily Weather History Graph

Search for Another Location

Airport or City:

Astronomy

Apr. 01, 2014 Rise Set
Actual Time 7:04 AM CDT 7:52 PM CDT
Civil Twilight 6:34 AM CDT 8:21 PM CDT
Nautical Twilight 5:59 AM CDT 8:57 PM CDT
Astronomical Twilight 5:22 AM CDT 9:34 PM CDT
Moon 8:02 AM CDT (4/1) 10:22 PM CDT (4/1)
Length of Visible Light 13h 47m
Length of Day
12h 47m
Waxing Crescent, 5% of the Moon is Illuminated
Apr 1
Waxing Crescent
Apr 7
First Quarter
Apr 15
Full
Apr 22
Last Quarter
Apr 29
New

Hourly Weather History & Observations

Time (CDT) Temp. Windchill Dew Point Humidity Pressure Visibility Wind Dir Wind Speed Gust Speed Precip Events Conditions
12:13 AM 19.4 °F -0.0 °F 15.8 °F 86% 29.65 in 2.5 mi NW 32.2 mph 46.0 mph N/A Snow Light Snow
12:33 AM 19.4 °F -0.6 °F 15.8 °F 86% 29.67 in 3.0 mi NW 34.5 mph 44.9 mph N/A   Haze
12:53 AM 19.4 °F 0.2 °F 15.8 °F 86% 29.69 in 3.0 mi NW 31.1 mph 42.6 mph N/A   Haze
1:15 AM 19.4 °F -0.8 °F 15.8 °F 86% 29.70 in 4.0 mi NNW 35.7 mph 48.3 mph N/A Snow Light Snow
1:33 AM 19.4 °F -0.8 °F 15.8 °F 86% 29.72 in 2.5 mi NW 35.7 mph 46.0 mph N/A Snow Light Snow
1:53 AM 19.4 °F -0.6 °F 15.8 °F 86% 29.73 in 1.5 mi NW 34.5 mph 44.9 mph N/A Snow Light Snow
2:14 AM 19.4 °F -0.6 °F 15.8 °F 86% 29.75 in 1.0 mi NW 34.5 mph 47.2 mph N/A Snow Light Snow
2:33 AM 19.4 °F -0.0 °F 15.8 °F 86% 29.76 in 1.0 mi NW 32.2 mph 46.0 mph N/A Snow Light Snow
2:53 AM 19.4 °F -0.0 °F 15.8 °F 86% 29.77 in 1.2 mi NNW 32.2 mph 43.7 mph N/A Snow Light Snow
3:13 AM 19.4 °F 0.2 °F 15.8 °F 86% 29.78 in 1.8 mi NW 31.1 mph 36.8 mph N/A Snow Light Snow
3:33 AM 19.4 °F -0.0 °F 15.8 °F 86% 29.79 in 1.5 mi NW 32.2 mph 40.3 mph N/A Snow Light Snow
3:53 AM 19.4 °F 0.5 °F 15.8 °F 86% 29.81 in 2.0 mi NW 29.9 mph 38.0 mph N/A Snow Light Snow
4:13 AM 19.4 °F 0.5 °F 15.8 °F 86% 29.81 in 2.0 mi NW 29.9 mph 40.3 mph N/A Snow Light Snow
4:34 AM 17.6 °F -2.8 °F 15.8 °F 93% 29.82 in 1.5 mi NW 33.4 mph 42.6 mph N/A Snow Light Snow
4:53 AM 17.6 °F -2.8 °F 15.8 °F 93% 29.83 in 1.8 mi NW 33.4 mph 42.6 mph N/A Snow Light Snow
5:13 AM 17.6 °F -1.0 °F 15.8 °F 93% 29.85 in 2.5 mi NW 26.5 mph 41.4 mph N/A Snow Light Snow
5:33 AM 17.6 °F -1.9 °F 15.8 °F 93% 29.86 in 2.0 mi NW 29.9 mph 39.1 mph N/A Snow Light Snow
5:53 AM 17.6 °F -2.5 °F 14.0 °F 86% 29.88 in 3.0 mi NW 32.2 mph 38.0 mph N/A Snow Light Snow
6:13 AM 17.6 °F -1.6 °F 14.0 °F 86% 29.89 in 5.0 mi NW 28.8 mph 39.1 mph N/A   Overcast
6:33 AM 17.6 °F -0.3 °F 12.2 °F 79% 29.90 in 7.0 mi NW 24.2 mph 36.8 mph N/A   Overcast
6:53 AM 17.6 °F -2.5 °F 12.2 °F 79% 29.91 in 10.0 mi NW 32.2 mph 38.0 mph N/A   Overcast
7:13 AM 17.6 °F -0.6 °F 10.4 °F 73% 29.91 in 10.0 mi NW 25.3 mph 34.5 mph N/A   Overcast
7:33 AM 17.6 °F -1.0 °F 10.4 °F 73% 29.92 in 10.0 mi NW 26.5 mph 32.2 mph N/A   Overcast
7:53 AM 17.6 °F -1.3 °F 10.4 °F 73% 29.93 in 10.0 mi NW 27.6 mph 33.4 mph N/A   Overcast
8:14 AM 17.6 °F -1.3 °F 10.4 °F 73% 29.94 in 10.0 mi NW 27.6 mph 34.5 mph N/A   Overcast
8:33 AM 17.6 °F -0.3 °F 10.4 °F 73% 29.95 in 10.0 mi NW 24.2 mph 31.1 mph N/A   Overcast
8:54 AM 17.6 °F -0.6 °F 10.4 °F 73% 29.97 in 10.0 mi NW 25.3 mph 31.1 mph N/A   Overcast
9:13 AM 17.6 °F -0.3 °F 10.4 °F 73% 29.96 in 10.0 mi NW 24.2 mph 32.2 mph N/A   Mostly Cloudy
9:33 AM 17.6 °F -0.6 °F 10.4 °F 73% 29.98 in 10.0 mi NW 25.3 mph 31.1 mph N/A   Scattered Clouds
9:53 AM 19.4 °F 2.5 °F 10.4 °F 68% 29.99 in 10.0 mi NW 23.0 mph 27.6 mph N/A   Scattered Clouds
10:13 AM 19.4 °F 2.1 °F 12.2 °F 74% 30.01 in 10.0 mi NW 24.2 mph - N/A   Mostly Cloudy
10:33 AM 19.4 °F 4.1 °F 12.2 °F 74% 30.03 in 10.0 mi NW 18.4 mph - N/A   Scattered Clouds
10:54 AM 21.2 °F 5.6 °F 12.2 °F 68% 30.03 in 10.0 mi NW 20.7 mph 26.5 mph N/A   Mostly Cloudy
11:14 AM 21.2 °F 6.8 °F 12.2 °F 68% 30.04 in 10.0 mi NW 17.3 mph 25.3 mph N/A   Overcast
11:33 AM 21.2 °F 5.2 °F 12.2 °F 68% 30.04 in 10.0 mi NW 21.9 mph 26.5 mph N/A   Overcast
11:54 AM 21.2 °F 5.2 °F 12.2 °F 68% 30.03 in 10.0 mi NW 21.9 mph 25.3 mph N/A   Mostly Cloudy
12:13 PM 21.2 °F 5.2 °F 12.2 °F 68% 30.04 in 10.0 mi NW 21.9 mph 25.3 mph N/A   Scattered Clouds
12:33 PM 23.0 °F 8.3 °F 15.8 °F 74% 30.05 in 10.0 mi NW 19.6 mph 25.3 mph N/A   Scattered Clouds
12:53 PM 24.8 °F 10.7 °F 15.8 °F 69% 30.05 in 10.0 mi NW 19.6 mph 24.2 mph N/A   Mostly Cloudy
1:13 PM 24.8 °F 11.1 °F 15.8 °F 69% 30.05 in 10.0 mi NW 18.4 mph - N/A   Scattered Clouds
1:33 PM 24.8 °F 11.1 °F 15.8 °F 69% 30.06 in 10.0 mi NW 18.4 mph - N/A   Scattered Clouds
1:53 PM 24.8 °F 10.7 °F 17.6 °F 74% 30.06 in 10.0 mi NW 19.6 mph 25.3 mph N/A   Clear
2:13 PM 26.6 °F 13.8 °F 17.6 °F 69% 30.06 in 10.0 mi NW 17.3 mph 24.2 mph N/A   Clear
2:31 PM 26.6 °F 13.8 °F 17.6 °F 69% 30.05 in 10.0 mi NW 17.3 mph 23.0 mph N/A   Scattered Clouds
2:33 PM 26.6 °F 14.3 °F 17.6 °F 69% 30.05 in 10.0 mi NW 16.1 mph 23.0 mph N/A   Scattered Clouds
2:54 PM 26.6 °F 14.3 °F 19.4 °F 74% 30.06 in 10.0 mi NW 16.1 mph 20.7 mph N/A   Scattered Clouds
3:13 PM 26.6 °F 13.8 °F 19.4 °F 74% 30.05 in 10.0 mi NW 17.3 mph 20.7 mph N/A   Clear
3:33 PM 26.6 °F 14.3 °F 19.4 °F 74% 30.05 in 10.0 mi WNW 16.1 mph - N/A   Clear
3:53 PM 28.4 °F 16.2 °F 21.2 °F 74% 30.05 in 10.0 mi NW 17.3 mph - N/A   Scattered Clouds
4:13 PM 28.4 °F 16.2 °F 19.4 °F 69% 30.06 in 10.0 mi WNW 17.3 mph - N/A   Clear
4:33 PM 28.4 °F 15.8 °F 21.2 °F 74% 30.06 in 10.0 mi NW 18.4 mph - N/A   Scattered Clouds
4:53 PM 28.4 °F 15.8 °F 19.4 °F 69% 30.07 in 10.0 mi NW 18.4 mph 23.0 mph N/A   Scattered Clouds
5:13 PM 28.4 °F 16.6 °F 21.2 °F 74% 30.07 in 10.0 mi WNW 16.1 mph - N/A   Mostly Cloudy
5:34 PM 28.4 °F 17.0 °F 19.4 °F 69% 30.08 in 10.0 mi NW 15.0 mph - N/A   Scattered Clouds
5:53 PM 28.4 °F 17.0 °F 19.4 °F 69% 30.08 in 10.0 mi NW 15.0 mph - N/A   Scattered Clouds
6:13 PM 28.4 °F 18.5 °F 19.4 °F 69% 30.08 in 10.0 mi NW 11.5 mph - N/A   Scattered Clouds
6:33 PM 28.4 °F 17.5 °F 21.2 °F 74% 30.09 in 10.0 mi NNW 13.8 mph - N/A   Scattered Clouds
6:53 PM 28.4 °F 18.0 °F 21.2 °F 74% 30.10 in 10.0 mi WNW 12.7 mph - N/A   Mostly Cloudy
7:13 PM 28.4 °F 17.0 °F 19.4 °F 69% 30.11 in 10.0 mi NW 15.0 mph - N/A   Scattered Clouds
7:33 PM 26.6 °F 16.8 °F 19.4 °F 74% 30.11 in 10.0 mi NW 10.4 mph - N/A   Scattered Clouds
7:53 PM 26.6 °F 18.2 °F 19.4 °F 74% 30.12 in 10.0 mi NNW 8.1 mph - N/A   Scattered Clouds
8:13 PM 26.6 °F 17.5 °F 19.4 °F 74% 30.12 in 10.0 mi NW 9.2 mph - N/A   Scattered Clouds
8:33 PM 26.6 °F 16.8 °F 19.4 °F 74% 30.13 in 10.0 mi NNW 10.4 mph - N/A   Scattered Clouds
8:53 PM 26.6 °F 16.8 °F 19.4 °F 74% 30.13 in 10.0 mi NNW 10.4 mph - N/A   Clear
9:13 PM 26.6 °F 16.2 °F 19.4 °F 74% 30.13 in 10.0 mi NNW 11.5 mph - N/A   Clear
9:33 PM 26.6 °F 17.5 °F 19.4 °F 74% 30.13 in 10.0 mi NNW 9.2 mph - N/A   Clear
9:53 PM 24.8 °F 16.9 °F 19.4 °F 80% 30.13 in 10.0 mi NNW 6.9 mph - N/A   Clear
10:13 PM 24.8 °F 16.9 °F 19.4 °F 80% 30.14 in 10.0 mi NNW 6.9 mph - N/A   Clear
10:33 PM 24.8 °F 17.9 °F 19.4 °F 80% 30.14 in 10.0 mi North 5.8 mph - N/A   Clear
10:53 PM 24.8 °F 16.9 °F 19.4 °F 80% 30.14 in 10.0 mi North 6.9 mph - N/A   Clear
11:13 PM 24.8 °F 16.1 °F 19.4 °F 80% 30.14 in 10.0 mi NNW 8.1 mph - N/A   Clear
11:33 PM 24.8 °F 16.9 °F 19.4 °F 80% 30.15 in 10.0 mi NNW 6.9 mph - N/A   Clear
11:53 PM 24.8 °F 16.9 °F 19.4 °F 80% 30.15 in 10.0 mi NNW 6.9 mph - N/A   Clear